Location: Azul
(36.7830°S, 59.8500°W)
Time: 01:18:36
(UTC-03:00)

CAS-4A - Pass Details

Date: 28 October 2021
Orbit: 529 x 539 km, 43.0° (Epoch: 04 December)

Event Time Altitude Azimuth Distance (km) Brightness Sun altitude
Exits shadow 04:20:40 15° 235° (SW) 1,505 ? -18.5°
Maximum altitude 04:23:37 35° 174° (S) 886 ? -18.0°
Drops below altitude 10° 04:27:24 10° 107° (ESE) 1,792 ? -17.4°
Sets 04:29:47 0° 98° (E) 2,681 ? -17.0°
